Wadesboro, NC

11:35 AM EDT on May 28, 2017 (GMT -0400)
Anson County

Weather History for KAFP - January, 2013

Change the Weather History Date:

Friday, January 4, 2013

  Actual Average (KCLT) Record (KCLT)
Temperature  
Mean Temperature 38 °F -  
Max Temperature 52 °F 50 °F 75 °F (1950)
Min Temperature 23 °F 32 °F 8 °F (1887)
Degree Days  
Heating Degree Days 28    
Moisture  
Dew Point 28 °F    
Average Humidity 75    
Maximum Humidity 99    
Minimum Humidity 34    
Precipitation  
Precipitation 0.00 in - - ()
Sea Level Pressure  
Sea Level Pressure 30.29 in    
Wind  
Wind Speed 1 mph (WSW)    
Max Wind Speed 9 mph    
Max Gust Speed -    
Visibility 7 miles    
Events Fog    
Averages and records for this station are not official NWS values.
T = Trace of Precipitation, MM = Missing Value Source: NWS Daily Summary

Daily Weather History Graph

Daily Weather History Graph

Search for Another Location

Airport or City:

Trip Planner

Search our weather history database for the weather conditions in past years. The results will help you decide how hot, cold, wet, or windy it might be!

Date:

Astronomy

Jan. 04, 2013 Rise Set
Actual Time 7:28 AM EST 5:22 PM EST
Civil Twilight 7:00 AM EST 5:50 PM EST
Nautical Twilight 6:29 AM EST 6:21 PM EST
Astronomical Twilight 5:58 AM EST 6:52 PM EST
Moon No Moon Rise 11:28 AM EST (1/4)
Length of Visible Light 10h 49m
Length of Day
9h 53m
Waning Gibbous, 55% of the Moon is Illuminated
Jan 4
Waning Gibbous
Jan 4
Last Quarter
Jan 11
New
Jan 18
First Quarter
Jan 26
Full

Hourly Weather History & Observations

Time (EST) Temp. Windchill Dew Point Humidity Pressure Visibility Wind Dir Wind Speed Gust Speed Precip Events Conditions
12:15 AM 30.4 °F - 29.5 °F 96% 30.28 in 0.2 mi Calm Calm - N/A Fog Light Freezing Fog
12:35 AM 30.0 °F - 29.1 °F 96% 30.28 in 1.2 mi Calm Calm - N/A   Overcast
12:55 AM 29.8 °F - 28.9 °F 96% 30.27 in 0.2 mi Calm Calm - N/A Fog Light Freezing Fog
1:15 AM 29.3 °F - 28.4 °F 96% 30.27 in 0.2 mi Calm Calm - N/A Fog Light Freezing Fog
1:35 AM 29.3 °F - 28.4 °F 96% 30.28 in 0.2 mi Calm Calm - N/A Fog Light Freezing Fog
1:55 AM 28.9 °F - 28.0 °F 96% 30.29 in 0.2 mi Calm Calm - N/A Fog Light Freezing Fog
2:15 AM 29.3 °F - 28.4 °F 96% 30.30 in 0.2 mi Calm Calm - N/A Fog Light Freezing Fog
2:35 AM 28.4 °F - 27.5 °F 96% 30.30 in 0.2 mi Calm Calm - N/A Fog Light Freezing Fog
2:55 AM 28.2 °F - 27.3 °F 96% 30.30 in 0.5 mi Calm Calm - N/A Fog Light Freezing Fog
3:15 AM 28.0 °F - 27.1 °F 96% 30.29 in 1.8 mi Calm Calm - N/A   Mist
3:35 AM 27.3 °F - 26.2 °F 96% 30.29 in 0.2 mi Calm Calm - N/A Fog Light Freezing Fog
3:55 AM 27.5 °F - 26.4 °F 96% 30.29 in 0.2 mi Calm Calm - N/A Fog Light Freezing Fog
4:15 AM 26.4 °F - 25.0 °F 94% 30.29 in 0.5 mi Calm Calm - N/A Fog Light Freezing Fog
6:35 AM 24.3 °F - 22.6 °F 94% 30.31 in 5.0 mi Calm Calm - N/A   Clear
7:15 AM 23.7 °F - 22.1 °F 94% 30.32 in 5.0 mi Calm Calm - N/A   Clear
7:35 AM 23.7 °F - 21.9 °F 93% 30.32 in 5.0 mi Calm Calm - N/A   Clear
7:55 AM 23.4 °F - 21.6 °F 93% 30.32 in 5.0 mi Calm Calm - N/A   Clear
8:15 AM 24.4 °F - 22.6 °F 93% 30.32 in 7.0 mi Calm Calm - N/A   Clear
8:35 AM 26.4 °F - 24.8 °F 94% 30.34 in 3.0 mi Calm Calm - N/A   Clear
8:55 AM 28.2 °F - 26.6 °F 94% 30.34 in 0.5 mi Calm Calm - N/A Fog Light Freezing Fog
9:15 AM 30.6 °F - 29.5 °F 96% 30.35 in 3.0 mi Calm Calm - N/A   Clear
9:35 AM 32.2 °F - 31.8 °F 99% 30.35 in 4.0 mi Calm Calm - N/A   Clear
9:55 AM 34.5 °F - 33.6 °F 97% 30.35 in 5.0 mi Calm Calm - N/A   Clear
10:15 AM 35.6 °F - 34.7 °F 97% 30.35 in 10.0 mi Calm Calm - N/A   Clear
10:35 AM 38.1 °F 35.7 °F 35.8 °F 91% 30.35 in 10.0 mi NW 3.5 mph - N/A   Clear
10:55 AM 40.8 °F 38.8 °F 31.6 °F 70% 30.34 in 10.0 mi NNW 3.5 mph - N/A   Clear
11:15 AM 42.3 °F - 31.5 °F 66% 30.34 in 10.0 mi Calm Calm - N/A   Clear
11:35 AM 44.2 °F - 29.5 °F 56% 30.32 in 10.0 mi Calm Calm - N/A   Clear
11:55 AM 46.0 °F - 26.4 °F 46% 30.31 in 10.0 mi Calm Calm - N/A   Clear
12:15 PM 46.8 °F - 25.9 °F 44% 30.30 in 10.0 mi West 5.8 mph - N/A   Clear
12:35 PM 48.0 °F - 25.7 °F 42% 30.29 in 10.0 mi West 5.8 mph - N/A   Clear
12:55 PM 48.6 °F - 25.5 °F 41% 30.28 in 10.0 mi SW 9.2 mph - N/A   Clear
1:15 PM 49.3 °F - 25.5 °F 40% 30.27 in 10.0 mi SW 8.1 mph - N/A   Clear
1:35 PM 49.8 °F - 26.6 °F 41% 30.26 in 10.0 mi SSW 5.8 mph - N/A   Clear
1:55 PM 50.5 °F - 25.3 °F 38% 30.25 in 10.0 mi WSW 4.6 mph - N/A   Clear
2:15 PM 51.1 °F - 25.2 °F 36% 30.23 in 10.0 mi SW 8.1 mph - N/A   Clear
2:35 PM 51.3 °F - 24.6 °F 35% 30.23 in 10.0 mi SW 5.8 mph - N/A   Clear
2:55 PM 51.8 °F - 25.3 °F 36% 30.22 in 10.0 mi South 3.5 mph - N/A   Clear
3:15 PM 52.0 °F - 24.1 °F 34% 30.22 in 10.0 mi WSW 4.6 mph - N/A   Clear
3:35 PM 52.0 °F - 25.3 °F 36% 30.23 in 10.0 mi SW 5.8 mph - N/A   Clear
3:55 PM 51.8 °F - 25.7 °F 36% 30.23 in 10.0 mi WSW 3.5 mph - N/A   Clear
4:15 PM 51.4 °F - 26.4 °F 38% 30.24 in 10.0 mi West 4.6 mph - N/A   Clear
4:35 PM 50.9 °F - 26.8 °F 39% 30.23 in 10.0 mi Calm Calm - N/A   Clear
4:55 PM 49.8 °F - 26.8 °F 41% 30.23 in 10.0 mi Calm Calm - N/A   Clear
5:15 PM 48.4 °F - 28.0 °F 45% 30.23 in 10.0 mi Calm Calm - N/A   Clear
5:35 PM 45.9 °F - 30.4 °F 55% 30.23 in 10.0 mi Calm Calm - N/A   Clear
5:55 PM 43.9 °F - 31.8 °F 63% 30.27 in 10.0 mi Calm Calm - N/A   Clear
6:15 PM 41.9 °F - 32.2 °F 68% 30.26 in 10.0 mi Calm Calm - N/A   Clear
6:35 PM 39.2 °F - 31.8 °F 75% 30.26 in 10.0 mi Calm Calm - N/A   Clear
6:55 PM 38.7 °F - 32.7 °F 79% 30.27 in 10.0 mi Calm Calm - N/A   Clear
7:15 PM 37.6 °F - 32.7 °F 83% 30.28 in 10.0 mi Calm Calm - N/A   Clear
7:35 PM 37.8 °F - 32.0 °F 80% 30.29 in 10.0 mi Calm Calm - N/A   Clear
7:55 PM 36.3 °F - 32.0 °F 84% 30.29 in 10.0 mi Calm Calm - N/A   Clear
8:15 PM 33.8 °F - 31.1 °F 90% 30.29 in 10.0 mi Calm Calm - N/A   Clear
8:35 PM 37.6 °F - 30.2 °F 75% 30.30 in 10.0 mi Calm Calm - N/A   Clear
8:55 PM 36.5 °F 32.7 °F 29.7 °F 76% 30.30 in 10.0 mi West 4.6 mph - N/A   Clear
9:15 PM 33.3 °F - 28.4 °F 82% 30.31 in 10.0 mi Calm Calm - N/A   Clear
9:35 PM 31.3 °F - 28.0 °F 88% 30.31 in 10.0 mi Calm Calm - N/A   Clear
10:35 PM 29.5 °F - 27.1 °F 91% 30.32 in 10.0 mi Calm Calm - N/A   Clear
10:55 PM 28.8 °F - 26.6 °F 92% 30.33 in 10.0 mi Calm Calm - N/A   Clear
11:15 PM 28.4 °F - 26.2 °F 92% 30.34 in 10.0 mi Calm Calm - N/A   Clear
11:35 PM 28.4 °F - 26.1 °F 91% 30.33 in 10.0 mi Calm Calm - N/A   Clear
11:55 PM 28.0 °F - 25.7 °F 91% 30.33 in 10.0 mi Calm Calm - N/A   Clear